Weather History for Anaktuvuk Pass, AK

Change the Weather History Date:

Thursday, September 13, 2012

  Actual Average Record
Temperature  
Mean Temperature 32 °F -  
Max Temperature 35 °F 38 °F 62 °F (2010)
Min Temperature 30 °F 26 °F 15 °F (1996)
Degree Days  
Heating Degree Days 32    
Moisture  
Dew Point 26 °F    
Average Humidity 78    
Maximum Humidity 86    
Minimum Humidity 65    
Precipitation  
Precipitation 0.00 in - - ()
Sea Level Pressure  
Sea Level Pressure 29.80 in    
Wind  
Wind Speed 7 mph (NE)    
Max Wind Speed 10 mph    
Max Gust Speed -    
Visibility 10 miles    
Events      
Averages and records for this station are not official NWS values.
T = Trace of Precipitation, MM = Missing Value Source: NWS Daily Summary

Daily Weather History Graph

Daily Weather History Graph

Search for Another Location

Airport:

Trip Planner

Search our weather history database for the weather conditions in past years. The results will help you decide how hot, cold, wet, or windy it might be!

Date:

Astronomy

Sep. 13, 2012 Rise Set
Actual Time 7:18 AM AKDT 8:44 PM AKDT
Civil Twilight 6:20 AM AKDT 9:42 PM AKDT
Nautical Twilight 5:01 AM AKDT 11:00 PM AKDT
Astronomical Twilight 2:41 AM AKDT 1:06 AM AKDT
Moon 3:57 AM AKDT (9/13) 7:41 PM AKDT (9/13)
Length of Visible Light 15h 22m
Length of Day
13h 25m
Waning Crescent, 6% of the Moon is Illuminated
Sep 13
Waning Crescent
Sep 15
New
Sep 22
First Quarter
Sep 29
Full
Oct 7
Last Quarter

Hourly Weather History & Observations

Time (AKDT) Temp. Windchill Dew Point Humidity Pressure Visibility Wind Dir Wind Speed Gust Speed Precip Events Conditions
12:16 AM 30.2 °F 22.6 °F 26.6 °F 86% 29.83 in 10.0 mi NE 8.1 mph - N/A   Overcast
12:36 AM 30.2 °F 22.6 °F 26.6 °F 86% 29.83 in 10.0 mi ENE 8.1 mph - N/A   Overcast
12:56 AM 30.2 °F 22.6 °F 26.6 °F 86% 29.83 in 10.0 mi ENE 8.1 mph - N/A   Overcast
1:16 AM 30.2 °F 22.6 °F 26.6 °F 86% 29.83 in 10.0 mi NE 8.1 mph - N/A   Overcast
1:36 AM 30.2 °F 22.6 °F 26.6 °F 86% 29.83 in 10.0 mi NE 8.1 mph - N/A   Overcast
1:56 AM 30.2 °F 21.3 °F 24.8 °F 80% 29.83 in 10.0 mi ENE 10.4 mph - N/A   Overcast
2:16 AM 30.2 °F 21.3 °F 26.6 °F 86% 29.83 in 10.0 mi NE 10.4 mph - N/A   Overcast
2:36 AM 30.2 °F 24.3 °F 26.6 °F 86% 29.83 in 10.0 mi NE 5.8 mph - N/A   Overcast
2:56 AM 30.2 °F 24.3 °F 26.6 °F 86% 29.83 in 10.0 mi NE 5.8 mph - N/A   Overcast
3:16 AM 30.2 °F 23.4 °F 26.6 °F 86% 29.83 in 10.0 mi ENE 6.9 mph - N/A   Overcast
3:36 AM 30.2 °F 22.6 °F 26.6 °F 86% 29.83 in 10.0 mi ENE 8.1 mph - N/A   Overcast
3:56 AM 30.2 °F 24.3 °F 24.8 °F 80% 29.83 in 10.0 mi ENE 5.8 mph - N/A   Overcast
4:16 AM 30.2 °F 24.3 °F 26.6 °F 86% 29.83 in 10.0 mi NE 5.8 mph - N/A   Overcast
4:36 AM 30.2 °F 23.4 °F 26.6 °F 86% 29.83 in 10.0 mi NE 6.9 mph - N/A   Overcast
4:56 AM 30.2 °F 24.3 °F 26.6 °F 86% 29.83 in 10.0 mi NE 5.8 mph - N/A   Overcast
5:16 AM 30.2 °F 23.4 °F 26.6 °F 86% 29.83 in 10.0 mi NE 6.9 mph - N/A   Overcast
5:36 AM 30.2 °F 24.3 °F 24.8 °F 80% 29.83 in 10.0 mi ENE 5.8 mph - N/A   Overcast
5:56 AM 30.2 °F 24.3 °F 24.8 °F 80% 29.83 in 10.0 mi ENE 5.8 mph - N/A   Overcast
6:16 AM 30.2 °F 22.6 °F 24.8 °F 80% 29.83 in 10.0 mi ENE 8.1 mph - N/A   Overcast
6:36 AM 30.2 °F 23.4 °F 24.8 °F 80% 29.83 in 10.0 mi NE 6.9 mph - N/A   Overcast
6:56 AM 30.2 °F 23.4 °F 24.8 °F 80% 29.83 in 10.0 mi NE 6.9 mph - N/A   Overcast
7:16 AM 30.2 °F 24.3 °F 24.8 °F 80% 29.83 in 10.0 mi NE 5.8 mph - N/A   Overcast
7:36 AM 30.2 °F 24.3 °F 24.8 °F 80% 29.83 in 10.0 mi NE 5.8 mph - N/A   Overcast
7:56 AM 30.2 °F 23.4 °F 24.8 °F 80% 29.83 in 10.0 mi NE 6.9 mph - N/A   Overcast
8:16 AM 30.2 °F 25.4 °F 24.8 °F 80% 29.83 in 10.0 mi NE 4.6 mph - N/A   Overcast
8:36 AM 30.2 °F 24.3 °F 24.8 °F 80% 29.83 in 10.0 mi NE 5.8 mph - N/A   Overcast
8:56 AM 30.2 °F 25.4 °F 24.8 °F 80% 29.83 in 10.0 mi NE 4.6 mph - N/A   Overcast
9:16 AM 30.2 °F 23.4 °F 24.8 °F 80% 29.83 in 10.0 mi NE 6.9 mph - N/A   Overcast
9:36 AM 30.2 °F 23.4 °F 24.8 °F 80% 29.83 in 10.0 mi ENE 6.9 mph - N/A   Overcast
9:56 AM 30.2 °F 23.4 °F 26.6 °F 86% 29.83 in 10.0 mi ENE 6.9 mph - N/A   Overcast
10:16 AM 30.2 °F 23.4 °F 26.6 °F 86% 29.83 in 10.0 mi NE 6.9 mph - N/A   Overcast
10:36 AM 30.2 °F 23.4 °F 24.8 °F 80% 29.83 in 10.0 mi NE 6.9 mph - N/A   Overcast
10:56 AM 30.2 °F 23.4 °F 26.6 °F 86% 29.83 in 10.0 mi NNE 6.9 mph - N/A   Overcast
11:16 AM 30.2 °F 24.3 °F 26.6 °F 86% 29.83 in 10.0 mi NE 5.8 mph - N/A   Overcast
11:36 AM 32.0 °F 24.8 °F 26.6 °F 80% 29.83 in 10.0 mi NE 8.1 mph - N/A   Overcast
11:56 AM 32.0 °F 25.6 °F 26.6 °F 80% 29.83 in 10.0 mi NNE 6.9 mph - N/A   Overcast
12:16 PM 32.0 °F 25.6 °F 26.6 °F 80% 29.83 in 10.0 mi NNE 6.9 mph - N/A   Overcast
12:36 PM 32.0 °F 24.8 °F 24.8 °F 75% 29.82 in 10.0 mi NNE 8.1 mph - N/A   Overcast
12:56 PM 33.8 °F 27.7 °F 26.6 °F 75% 29.82 in 10.0 mi NNE 6.9 mph - N/A   Overcast
1:16 PM 33.8 °F 27.0 °F 24.8 °F 70% 29.82 in 10.0 mi NNE 8.1 mph - N/A   Overcast
1:36 PM 33.8 °F 27.7 °F 24.8 °F 70% 29.82 in 10.0 mi NNE 6.9 mph - N/A   Overcast
1:56 PM 33.8 °F 27.7 °F 24.8 °F 70% 29.81 in 10.0 mi NNE 6.9 mph - N/A   Overcast
2:16 PM 33.8 °F 27.0 °F 24.8 °F 70% 29.81 in 10.0 mi NNE 8.1 mph - N/A   Overcast
2:36 PM 33.8 °F 27.7 °F 24.8 °F 70% 29.81 in 10.0 mi NE 6.9 mph - N/A   Overcast
2:56 PM 33.8 °F 28.6 °F 24.8 °F 70% 29.80 in 10.0 mi NE 5.8 mph - N/A   Overcast
3:16 PM 35.6 °F 30.7 °F 24.8 °F 65% 29.79 in 10.0 mi NNE 5.8 mph - N/A   Overcast
3:36 PM 35.6 °F 31.7 °F 24.8 °F 65% 29.79 in 10.0 mi NNE 4.6 mph - N/A   Overcast
3:56 PM 35.6 °F 31.7 °F 24.8 °F 65% 29.79 in 10.0 mi NE 4.6 mph - N/A   Overcast
4:16 PM 35.6 °F 31.7 °F 24.8 °F 65% 29.79 in 10.0 mi NNE 4.6 mph - N/A   Overcast
4:36 PM 35.6 °F 30.7 °F 24.8 °F 65% 29.78 in 10.0 mi NE 5.8 mph - N/A   Overcast
4:56 PM 35.6 °F 30.7 °F 24.8 °F 65% 29.78 in 10.0 mi NNE 5.8 mph - N/A   Overcast
5:16 PM 35.6 °F 30.7 °F 24.8 °F 65% 29.78 in 10.0 mi NNE 5.8 mph - N/A   Overcast
5:36 PM 35.6 °F 30.7 °F 24.8 °F 65% 29.78 in 10.0 mi NNE 5.8 mph - N/A   Overcast
5:56 PM 35.6 °F 29.9 °F 24.8 °F 65% 29.77 in 10.0 mi NE 6.9 mph - N/A   Overcast
6:16 PM 35.6 °F 30.7 °F 24.8 °F 65% 29.77 in 10.0 mi NE 5.8 mph - N/A   Overcast
6:36 PM 35.6 °F 30.7 °F 24.8 °F 65% 29.77 in 10.0 mi NE 5.8 mph - N/A   Overcast
6:56 PM 35.6 °F 30.7 °F 24.8 °F 65% 29.77 in 10.0 mi NE 5.8 mph - N/A   Overcast
7:16 PM 33.8 °F 28.6 °F 24.8 °F 70% 29.76 in 10.0 mi NE 5.8 mph - N/A   Overcast
7:36 PM 33.8 °F 28.6 °F 24.8 °F 70% 29.76 in 10.0 mi NE 5.8 mph - N/A   Overcast
7:56 PM 33.8 °F 29.6 °F 24.8 °F 70% 29.76 in 10.0 mi NE 4.6 mph - N/A   Overcast
8:16 PM 33.8 °F 29.6 °F 24.8 °F 70% 29.76 in 10.0 mi ENE 4.6 mph - N/A   Overcast
8:36 PM 33.8 °F 29.6 °F 24.8 °F 70% 29.75 in 10.0 mi NE 4.6 mph - N/A   Overcast
8:56 PM 33.8 °F 29.6 °F 24.8 °F 70% 29.75 in 10.0 mi NE 4.6 mph - N/A   Overcast
9:16 PM 33.8 °F 29.6 °F 24.8 °F 70% 29.75 in 10.0 mi NE 4.6 mph - N/A   Overcast
9:36 PM 32.0 °F 26.4 °F 26.6 °F 80% 29.75 in 10.0 mi ENE 5.8 mph - N/A   Overcast
9:56 PM 32.0 °F 26.4 °F 26.6 °F 80% 29.75 in 10.0 mi ENE 5.8 mph - N/A   Overcast
10:16 PM 30.2 °F 25.4 °F 26.6 °F 86% 29.75 in 10.0 mi NE 4.6 mph - N/A   Overcast
10:36 PM 30.2 °F 24.3 °F 26.6 °F 86% 29.75 in 10.0 mi NE 5.8 mph - N/A   Overcast
10:56 PM 30.2 °F 25.4 °F 26.6 °F 86% 29.75 in 10.0 mi NE 4.6 mph - N/A   Overcast
11:16 PM 30.2 °F 25.4 °F 26.6 °F 86% 29.75 in 10.0 mi NE 4.6 mph - N/A   Overcast
11:36 PM 30.2 °F 25.4 °F 26.6 °F 86% 29.75 in 10.0 mi NE 4.6 mph - N/A   Overcast
11:56 PM 30.2 °F 25.4 °F 26.6 °F 86% 29.75 in 8.0 mi NE 4.6 mph - N/A   Overcast